Regional Weather Roundup
Issued by NWS Jackson, KY

Home | Current Version | Previous Version | Graphics & Text | Print | Product List | Glossary On
Versions: 1 2 3 4 5 6 7 8 9 10 11 12 13 14 15 16 17 18 19 20 21 22 23 24 25 26 27 28 29 30 31 32 33 34 35 36 37 38 39 40 41 42 43 44 45 46 47 48 49 50
000
ASUS43 KJKL 091010
RWRJKL

EAST KENTUCKY HOURLY WEATHER ROUNDUP
NATIONAL WEATHER SERVICE JACKSON KY
500 AM EST FRI DEC 09 2016

NOTE: "FAIR" INDICATES FEW OR NO CLOUDS BELOW 12,000 FEET WITH
NO SIGNIFICANT WEATHER AND/OR OBSTRUCTIONS TO VISIBILITY.

* THESE REPORTS ARE NOT UNDER NWS QUALITY CONTROL AND MAY NOT
  REPORT WEATHER SUCH AS PRECIPITATION AND FOG.

KYZ079-080-083-085-087-088-110-112-115-119-120-091100
...EASTERN KENTUCKY...

CITY           SKY/WX    TMP DP  RH WIND       PRES   REMARKS
JACKSON        CLOUDY    21  14  74 VRB3      30.44S
LONDON         CLOUDY    22  11  62 NW7       30.47R WCI  13
SOMERSET*      CLOUDY    23  14  68 N6        30.52R WCI  16
MONTICELLO*    CLOUDY    24  16  71 NW7       30.52R WCI  16
MIDDLESBORO*   CLOUDY    25  15  66 NW7       30.46R WCI  17
HARLAN APT*    CLOUDY    23  14  68 NW5       30.42S WCI  17
PIKE CO APT*   FLURRIES  22  16  78 NW9       30.42R WCI  11
BIG SANDY APT* FLURRIES  23  14  67 NW7       30.44R WCI  15
MOREHEAD APT*  FLURRIES  23  16  74 W5        30.48S WCI  17
ASHLAND*       CLOUDY    27  16  63 NW12      30.46S WCI  16
$$

KYZ035-036-041-042-044-050-067-078-099-091100
...CENTRAL KENTUCKY...

CITY           SKY/WX    TMP DP  RH WIND       PRES   REMARKS
MT STERLING*   LGT SNOW  23  19  86 NW5       30.50R WCI  17
FLEMING/MASON* CLOUDY    22  17  81 NW10      30.49R WCI  11
DANVILLE*      FLURRIES  23  16  74 N5        30.51S WCI  17
LEXINGTON      FLURRIES  22  15  75 W10       30.49S WCI  11
FRANKFORT      CLOUDY    22  11  62 VRB6      30.50S WCI  14
LOUISVILLE     FLURRIES  24  11  57 NW10      30.54S WCI  14
LEBANON*       MIX PCPN  23  16  74 NW5       30.52S WCI  17
GLASGOW*       CLOUDY    25  16  70 NW8       30.54R WCI  16
BOWLING GREEN  CLOUDY    26  14  60 N7        30.56S WCI  18
$$

KYZ091>093-OHZ055-061-077-WVZ005-015-034-035-042-091100
...SOUTHERN OHIO/WEST VIRGINIA...

CITY           SKY/WX    TMP DP  RH WIND       PRES   REMARKS
COVINGTON      CLOUDY    21  14  74 W9        30.47S WCI  11
COLUMBUS       FLURRIES  21  16  81 W9        30.41R WCI  11
DAYTON         PTCLDY    17  13  84 W10       30.43R WCI   5
WILMINGTON     CLEAR     18  13  80 W12       30.42S WCI   5
HUNTINGTON     CLOUDY    24  13  62 W8        30.45R WCI  15
CHARLESTON     CLOUDY    24  12  60 W9        30.42R WCI  14
PINEVILLE*     FLURRIES  24  14  67 MISG      30.41R
BECKLEY        LGT SNOW  17  12  80 NW13      30.30R WCI   4
BLUEFIELD      LGT SNOW  18  13  80 NW9       30.26R WCI   7
LOGAN CO APT*  LGT SNOW  21  18  86 CALM      30.38R
$$

VAZ002-007-008-TNZ017-027-036-066-071-091100
...SOUTHWEST VIRGINIA/EAST TENNESSEE...

CITY           SKY/WX    TMP DP  RH WIND       PRES   REMARKS
WISE*          FLURRIES  21  14  73 NW9       30.33R WCI  11
ABINGDON*      CLOUDY    27  15  61 N5        30.34R WCI  21
BRISTOL        CLOUDY    26  15  63 W10       30.38S WCI  16
MORRISTOWN*    CLOUDY    27  16  63 N6        30.41S WCI  20
SEVIERVILLE*   CLOUDY    25  16  68 CALM      30.44S
KNOXVILLE      PTCLDY    26  16  65 CALM      30.45S
OAK RIDGE      CLEAR     27  14  58 VRB6      30.47S WCI  20
CROSSVILLE     CLOUDY    21  15  78 NW12      30.42R WCI   9
NASHVILLE      CLOUDY    25  15  66 NW7       30.55S WCI  17
$$

...KEY TO REMARKS...
VSB - VISIBILITY IN MILES
WCI - WIND CHILL INDEX
HX  - HEAT INDEX

$$



USA.gov is the U.S. government's official web portal to all federal, state and local government web resources and services.